When you browse on this site, cookies collect data to enhance your experience and personalize the content and advertising you see.
Visit our Privacy Policy to learn more. By continuing to use the site, you agree to this use of cookies and data.
  • In United Kingdom
  • List of Countries
  • For 7 days
  • Water Temperature
  • Weather Map
  • Weather Widgets
  • user-avatar
    Login

    Hourly Weather Essen

    Today, 26 August, Monday

    Time Temperature Precipitation Wind Pressure Humidity
    00:00 +25°C° 0 mm 2 mps 756 mmHg 64%
    01:00 +24°C° 0 mm 2 mps 756 mmHg 67%
    02:00 +24°C° 0 mm 1 mps 756 mmHg 69%
    03:00 +23°C° 0 mm 1 mps 756 mmHg 71%
    04:00 +24°C° 0 mm 1 mps 756 mmHg 71%
    05:00 +24°C° 0 mm 1 mps 756 mmHg 71%
    06:00 +24°C° 0 mm 1 mps 756 mmHg 71%
    07:00 +26°C° 0 mm 1 mps 756 mmHg 64%
    08:00 +28°C° 0 mm 1 mps 756 mmHg 58%
    09:00 +30°C° 0 mm 1 mps 756 mmHg 51%
    10:00 +31°C° 0 mm 1 mps 756 mmHg 46%
    11:00 +33°C° 0 mm 1 mps 756 mmHg 42%
    12:00 +34°C° 0 mm 1 mps 756 mmHg 37%
    13:00 +34°C° 0 mm 1 mps 755 mmHg 36%
    14:00 +34°C° 0 mm 1 mps 755 mmHg 35%
    15:00 +34°C° 0 mm 1 mps 754 mmHg 34%
    16:00 +33°C° 0.1 mm 1 mps 754 mmHg 39%
    17:00 +31°C° 0.1 mm 1 mps 754 mmHg 43%
    18:00 +30°C° 0.1 mm 1 mps 754 mmHg 47%
    19:00 +29°C° 0.4 mm 1 mps 754 mmHg 51%
    20:00 +28°C° 0.4 mm 1 mps 755 mmHg 54%
    21:00 +27°C° 0.4 mm 1 mps 755 mmHg 58%
    22:00 +26°C° 0.1 mm 1 mps 755 mmHg 59%
    23:00 +26°C° 0.1 mm 1 mps 755 mmHg 60%

    Tomorrow, 27 August, Tuesday

    Time Temperature Precipitation Wind Pressure Humidity
    00:00 +25°C° 0.1 mm 1 mps 755 mmHg 62%
    01:00 +25°C° 0 mm 1 mps 754 mmHg 63%
    02:00 +24°C° 0 mm 1 mps 754 mmHg 64%
    03:00 +24°C° 0 mm 1 mps 754 mmHg 65%
    04:00 +24°C° 0 mm 1 mps 754 mmHg 65%
    05:00 +24°C° 0 mm 1 mps 754 mmHg 65%
    06:00 +25°C° 0 mm 1 mps 754 mmHg 65%
    07:00 +27°C° 0 mm 1 mps 754 mmHg 59%
    08:00 +29°C° 0 mm 1 mps 754 mmHg 52%
    09:00 +31°C° 0 mm 1 mps 754 mmHg 46%
    10:00 +32°C° 0 mm 1 mps 754 mmHg 42%
    11:00 +33°C° 0 mm 1 mps 754 mmHg 38%
    12:00 +34°C° 0 mm 1 mps 754 mmHg 33%
    13:00 +34°C° 0 mm 1 mps 753 mmHg 33%
    14:00 +34°C° 0 mm 1 mps 753 mmHg 33%
    15:00 +34°C° 0 mm 1 mps 752 mmHg 33%
    16:00 +33°C° 0 mm 1 mps 752 mmHg 36%
    17:00 +32°C° 0 mm 1 mps 752 mmHg 39%
    18:00 +30°C° 0 mm 1 mps 752 mmHg 42%
    19:00 +30°C° 0 mm 1 mps 752 mmHg 44%
    20:00 +29°C° 0 mm 1 mps 753 mmHg 46%
    21:00 +28°C° 0 mm 1 mps 753 mmHg 48%
    22:00 +27°C° 0 mm 1 mps 753 mmHg 50%
    23:00 +27°C° 0 mm 1 mps 753 mmHg 52%

    Day after tomorrow, 28 August, Wednesday

    Time Temperature Precipitation Wind Pressure Humidity
    00:00 +26°C° 0 mm 1 mps 753 mmHg 54%
    01:00 +26°C° 0 mm 1 mps 753 mmHg 56%
    02:00 +25°C° 0 mm 2 mps 753 mmHg 57%
    03:00 +25°C° 0 mm 2 mps 753 mmHg 59%
    04:00 +25°C° 0 mm 2 mps 753 mmHg 60%
    05:00 +25°C° 0 mm 2 mps 753 mmHg 61%
    06:00 +25°C° 0 mm 2 mps 753 mmHg 62%
    07:00 +27°C° 0 mm 2 mps 753 mmHg 56%
    08:00 +28°C° 0 mm 2 mps 753 mmHg 50%
    09:00 +30°C° 0 mm 2 mps 753 mmHg 44%
    10:00 +32°C° 0 mm 2 mps 752 mmHg 39%
    11:00 +34°C° 0 mm 2 mps 752 mmHg 35%
    12:00 +35°C° 0 mm 2 mps 752 mmHg 30%
    13:00 +35°C° 0 mm 2 mps 752 mmHg 31%
    14:00 +35°C° 0 mm 3 mps 752 mmHg 32%
    15:00 +35°C° 0 mm 3 mps 752 mmHg 32%
    16:00 +32°C° 0 mm 2 mps 752 mmHg 38%
    17:00 +31°C° 0 mm 2 mps 752 mmHg 44%
    18:00 +29°C° 0 mm 2 mps 752 mmHg 50%
    19:00 +28°C° 0 mm 2 mps 752 mmHg 53%
    20:00 +27°C° 0 mm 1 mps 752 mmHg 55%
    21:00 +26°C° 0 mm 1 mps 752 mmHg 58%
    22:00 +26°C° 0 mm 1 mps 752 mmHg 59%
    23:00 +26°C° 0 mm 1 mps 752 mmHg 60%

    29 August, Thursday

    Time Temperature Precipitation Wind Pressure Humidity
    00:00 +25°C° 0 mm 1 mps 752 mmHg 61%
    01:00 +24°C° 0.7 mm 2 mps 753 mmHg 67%
    02:00 +23°C° 0.7 mm 2 mps 753 mmHg 73%
    03:00 +21°C° 0.7 mm 2 mps 753 mmHg 80%
    04:00 +21°C° 0.2 mm 2 mps 753 mmHg 79%
    05:00 +21°C° 0.2 mm 2 mps 753 mmHg 79%
    06:00 +23°C° 0.2 mm 1 mps 753 mmHg 79%
    07:00 +23°C° 0.2 mm 1 mps 753 mmHg 75%
    08:00 +24°C° 0.2 mm 1 mps 753 mmHg 71%
    09:00 +23°C° 0.2 mm 0 mps 754 mmHg 67%
    10:00 +26°C° 0.3 mm 1 mps 754 mmHg 68%
    11:00 +26°C° 0.3 mm 2 mps 754 mmHg 68%
    12:00 +26°C° 0.3 mm 3 mps 754 mmHg 68%
    13:00 +26°C° 0.3 mm 3 mps 754 mmHg 64%
    14:00 +26°C° 0.3 mm 3 mps 754 mmHg 60%
    15:00 +27°C° 0.3 mm 3 mps 754 mmHg 57%
    16:00 +26°C° 0 mm 3 mps 755 mmHg 60%
    17:00 +25°C° 0 mm 3 mps 755 mmHg 63%
    18:00 +22°C° 0 mm 3 mps 756 mmHg 66%
    19:00 +21°C° 0 mm 3 mps 756 mmHg 68%
    20:00 +20°C° 0 mm 2 mps 757 mmHg 71%
    21:00 +19°C° 0 mm 2 mps 757 mmHg 74%
    22:00 +19°C° 0 mm 2 mps 757 mmHg 74%
    23:00 +19°C° 0 mm 1 mps 757 mmHg 75%

    30 August, Friday

    Time Temperature Precipitation Wind Pressure Humidity
    00:00 +19°C° 0 mm 1 mps 757 mmHg 76%
    01:00 +19°C° 0 mm 1 mps 757 mmHg 76%
    02:00 +18°C° 0 mm 1 mps 757 mmHg 77%
    03:00 +18°C° 0 mm 1 mps 757 mmHg 78%
    04:00 +18°C° 0 mm 1 mps 757 mmHg 78%
    05:00 +18°C° 0 mm 1 mps 758 mmHg 78%
    06:00 +18°C° 0 mm 1 mps 758 mmHg 78%
    07:00 +20°C° 0 mm 1 mps 758 mmHg 69%
    08:00 +22°C° 0 mm 1 mps 758 mmHg 61%
    09:00 +23°C° 0 mm 1 mps 758 mmHg 53%
    10:00 +24°C° 0 mm 1 mps 758 mmHg 50%
    11:00 +25°C° 0 mm 1 mps 758 mmHg 47%
    12:00 +26°C° 0 mm 2 mps 757 mmHg 44%
    13:00 +26°C° 0 mm 2 mps 757 mmHg 42%
    14:00 +26°C° 0 mm 2 mps 757 mmHg 41%
    15:00 +26°C° 0 mm 2 mps 756 mmHg 39%
    16:00 +25°C° 0 mm 1 mps 756 mmHg 43%
    17:00 +24°C° 0 mm 1 mps 756 mmHg 46%
    18:00 +23°C° 0 mm 1 mps 756 mmHg 50%
    19:00 +22°C° 0 mm 1 mps 756 mmHg 51%
    20:00 +21°C° 0 mm 1 mps 756 mmHg 52%
    21:00 +20°C° 0 mm 1 mps 756 mmHg 53%
    22:00 +20°C° 0 mm 1 mps 756 mmHg 55%
    23:00 +20°C° 0 mm 1 mps 755 mmHg 57%

    31 August, Saturday

    Time Temperature Precipitation Wind Pressure Humidity
    00:00 +20°C° 0 mm 1 mps 755 mmHg 59%
    01:00 +19°C° 0 mm 1 mps 755 mmHg 63%
    02:00 +19°C° 0 mm 1 mps 754 mmHg 66%
    03:00 +19°C° 0 mm 1 mps 754 mmHg 70%
    04:00 +19°C° 0 mm 1 mps 754 mmHg 70%
    05:00 +19°C° 0 mm 1 mps 753 mmHg 70%
    06:00 +19°C° 0 mm 1 mps 753 mmHg 70%
    07:00 +20°C° 0 mm 2 mps 753 mmHg 63%
    08:00 +21°C° 0 mm 2 mps 753 mmHg 56%
    09:00 +23°C° 0 mm 2 mps 753 mmHg 49%
    10:00 +24°C° 0 mm 3 mps 753 mmHg 46%
    11:00 +25°C° 0 mm 3 mps 753 mmHg 43%
    12:00 +26°C° 0 mm 3 mps 752 mmHg 40%
    13:00 +26°C° 0 mm 3 mps 752 mmHg 39%
    14:00 +26°C° 0 mm 3 mps 752 mmHg 39%
    15:00 +26°C° 0 mm 3 mps 751 mmHg 38%
    16:00 +25°C° 0 mm 3 mps 751 mmHg 42%
    17:00 +24°C° 0 mm 2 mps 751 mmHg 46%
    18:00 +23°C° 0 mm 2 mps 751 mmHg 50%
    19:00 +21°C° 0 mm 2 mps 751 mmHg 52%
    20:00 +20°C° 0 mm 2 mps 751 mmHg 54%
    21:00 +19°C° 0 mm 2 mps 751 mmHg 56%
    22:00 +19°C° 0 mm 2 mps 751 mmHg 61%
    23:00 +18°C° 0 mm 2 mps 751 mmHg 66%
    Show more